TimeCST,TemperatureF,Dew PointF,Humidity,Sea Level PressureIn,VisibilityMPH,Wind Direction,Wind SpeedMPH,Gust SpeedMPH,PrecipitationIn,Events,Conditions,WindDirDegrees,DateUTC
12:56 AM,43.0,43.0,100,30.21,5.0,North,3.5,-,N/A,,Clear,350,2012-11-16 06:56:00
1:56 AM,43.0,43.0,100,30.20,6.0,North,3.5,-,N/A,,Clear,360,2012-11-16 07:56:00
2:47 AM,44.6,42.8,93,30.24,5.0,North,3.5,-,N/A,,Mostly Cloudy,350,2012-11-16 08:47:00
2:56 AM,44.1,43.0,96,30.20,5.0,North,3.5,-,N/A,,Overcast,360,2012-11-16 08:56:00
3:56 AM,45.0,44.1,97,30.19,6.0,Calm,Calm,-,N/A,,Overcast,0,2012-11-16 09:56:00
4:28 AM,44.6,44.6,100,30.22,7.0,North,3.5,-,N/A,,Overcast,10,2012-11-16 10:28:00
4:56 AM,45.0,44.1,97,30.19,7.0,North,4.6,-,N/A,,Overcast,350,2012-11-16 10:56:00
5:56 AM,45.0,44.1,97,30.21,5.0,North,3.5,-,N/A,,Overcast,10,2012-11-16 11:56:00
6:26 AM,46.4,44.6,93,30.25,4.0,Calm,Calm,-,N/A,,Overcast,0,2012-11-16 12:26:00
6:56 AM,46.0,45.0,96,30.23,3.0,North,6.9,-,N/A,,Overcast,10,2012-11-16 12:56:00
7:16 AM,46.4,46.4,100,30.27,2.0,North,6.9,-,N/A,,Overcast,10,2012-11-16 13:16:00
7:41 AM,46.4,46.4,100,30.27,1.5,North,6.9,-,N/A,,Overcast,360,2012-11-16 13:41:00
7:56 AM,46.9,46.9,100,30.24,2.0,NNE,3.5,-,N/A,,Overcast,20,2012-11-16 13:56:00
8:10 AM,48.2,46.4,93,30.28,2.5,NNE,6.9,-,N/A,,Overcast,30,2012-11-16 14:10:00
8:41 AM,48.2,46.4,93,30.28,5.0,NE,4.6,-,N/A,,Overcast,50,2012-11-16 14:41:00
8:56 AM,48.9,46.9,93,30.25,7.0,NE,3.5,-,N/A,,Overcast,50,2012-11-16 14:56:00
9:56 AM,50.0,46.9,89,30.25,9.0,ENE,9.2,-,N/A,,Overcast,60,2012-11-16 15:56:00
10:56 AM,51.1,46.9,86,30.25,10.0,NE,6.9,-,N/A,,Overcast,50,2012-11-16 16:56:00
11:56 AM,51.1,48.0,89,30.24,10.0,NE,8.1,-,N/A,,Overcast,40,2012-11-16 17:56:00
12:56 PM,53.1,48.9,86,30.22,10.0,Variable,4.6,-,N/A,,Overcast,0,2012-11-16 18:56:00
1:56 PM,54.0,48.0,80,30.20,10.0,NE,9.2,-,N/A,,Overcast,40,2012-11-16 19:56:00
2:56 PM,55.0,48.9,80,30.20,10.0,NE,4.6,-,N/A,,Overcast,50,2012-11-16 20:56:00
3:56 PM,57.0,48.0,72,30.19,10.0,ENE,4.6,-,N/A,,Scattered Clouds,60,2012-11-16 21:56:00
4:56 PM,52.0,48.9,89,30.19,10.0,Calm,Calm,-,N/A,,Partly Cloudy,0,2012-11-16 22:56:00
5:56 PM,46.9,46.0,97,30.20,8.0,NW,3.5,-,N/A,,Clear,310,2012-11-16 23:56:00
6:56 PM,45.0,45.0,100,30.22,8.0,NW,4.6,-,N/A,,Clear,310,2012-11-17 00:56:00
7:56 PM,46.0,46.0,100,30.22,8.0,NW,4.6,-,N/A,,Clear,320,2012-11-17 01:56:00
8:56 PM,46.0,45.0,96,30.24,8.0,NNW,5.8,-,N/A,,Clear,330,2012-11-17 02:56:00
9:56 PM,45.0,45.0,100,30.25,6.0,NNW,4.6,-,N/A,,Clear,340,2012-11-17 03:56:00
10:56 PM,44.1,44.1,100,30.25,5.0,North,3.5,-,N/A,,Clear,360,2012-11-17 04:56:00
11:56 PM,46.0,45.0,96,30.24,8.0,North,4.6,-,N/A,,Clear,10,2012-11-17 05:56:00